When you browse on this site, cookies collect data to enhance your experience and personalize the content and advertising you see.
Visit our Privacy Policy to learn more. By continuing to use the site, you agree to this use of cookies and data.
  • en Suisse
  • Liste des pays
  • À 7 jours
  • Température de l'eau
  • Carte météo
  • Widgets météo
  • user-avatar
    Se connecter

    Météo par heure à Plymouth

    Ce jour, 1 Avril, Mercredi

    Heure Température Précipitation Vent Pression Humidité
    00:00 0°C° 0 mm 5 m/s 769 mmHg 90%
    01:00 0°C° 0 mm 5 m/s 768 mmHg 91%
    02:00 0°C° 0 mm 5 m/s 768 mmHg 92%
    03:00 -1°C° 0 mm 4 m/s 768 mmHg 93%
    04:00 -1°C° 0 mm 4 m/s 767 mmHg 93%
    05:00 -1°C° 0 mm 4 m/s 767 mmHg 93%
    06:00 -2°C° 0 mm 4 m/s 767 mmHg 93%
    07:00 +1°C° 0 mm 4 m/s 767 mmHg 86%
    08:00 +4°C° 0 mm 4 m/s 767 mmHg 79%
    09:00 +6°C° 0 mm 4 m/s 767 mmHg 72%
    10:00 +6°C° 0 mm 4 m/s 767 mmHg 71%
    11:00 +7°C° 0 mm 4 m/s 767 mmHg 70%
    12:00 +8°C° 0 mm 4 m/s 767 mmHg 69%
    13:00 +8°C° 0 mm 4 m/s 766 mmHg 69%
    14:00 +8°C° 0 mm 4 m/s 766 mmHg 68%
    15:00 +8°C° 0 mm 4 m/s 766 mmHg 68%
    16:00 +7°C° 0 mm 4 m/s 765 mmHg 70%
    17:00 +7°C° 0 mm 4 m/s 765 mmHg 72%
    18:00 +6°C° 0 mm 4 m/s 765 mmHg 74%
    19:00 +5°C° 0 mm 4 m/s 765 mmHg 78%
    20:00 +4°C° 0 mm 4 m/s 765 mmHg 82%
    21:00 +3°C° 0 mm 4 m/s 765 mmHg 86%
    22:00 +1°C° 0 mm 4 m/s 765 mmHg 87%
    23:00 +1°C° 0 mm 4 m/s 765 mmHg 88%

    Demain, 2 Avril, Jeudi

    Heure Température Précipitation Vent Pression Humidité
    00:00 +1°C° 0 mm 4 m/s 765 mmHg 89%
    01:00 0°C° 0 mm 4 m/s 765 mmHg 89%
    02:00 0°C° 0 mm 4 m/s 764 mmHg 90%
    03:00 +1°C° 0 mm 3 m/s 764 mmHg 91%
    04:00 +1°C° 0 mm 3 m/s 764 mmHg 91%
    05:00 +2°C° 0 mm 3 m/s 764 mmHg 91%
    06:00 +2°C° 0 mm 3 m/s 764 mmHg 91%
    07:00 +4°C° 0 mm 3 m/s 763 mmHg 86%
    08:00 +7°C° 0 mm 3 m/s 763 mmHg 81%
    09:00 +7°C° 0 mm 4 m/s 763 mmHg 76%
    10:00 +8°C° 0 mm 4 m/s 763 mmHg 74%
    11:00 +10°C° 0 mm 4 m/s 763 mmHg 73%
    12:00 +9°C° 0 mm 5 m/s 763 mmHg 72%
    13:00 +9°C° 0.1 mm 5 m/s 763 mmHg 73%
    14:00 +9°C° 0.1 mm 6 m/s 763 mmHg 75%
    15:00 +9°C° 0.1 mm 6 m/s 762 mmHg 76%
    16:00 +8°C° 0 mm 6 m/s 762 mmHg 79%
    17:00 +7°C° 0 mm 5 m/s 762 mmHg 82%
    18:00 +7°C° 0 mm 5 m/s 762 mmHg 85%
    19:00 +6°C° 0 mm 5 m/s 762 mmHg 88%
    20:00 +5°C° 0 mm 4 m/s 762 mmHg 91%
    21:00 +4°C° 0 mm 4 m/s 762 mmHg 94%
    22:00 +4°C° 0 mm 4 m/s 762 mmHg 94%
    23:00 +4°C° 0 mm 4 m/s 762 mmHg 93%

    Après-demain, 3 Avril, Vendredi

    Heure Température Précipitation Vent Pression Humidité
    00:00 +4°C° 0 mm 4 m/s 762 mmHg 92%
    01:00 +4°C° 0 mm 3 m/s 762 mmHg 93%
    02:00 +3°C° 0 mm 3 m/s 762 mmHg 94%
    03:00 +3°C° 0 mm 3 m/s 761 mmHg 95%
    04:00 +3°C° 0 mm 3 m/s 761 mmHg 95%
    05:00 +3°C° 0 mm 3 m/s 762 mmHg 96%
    06:00 +4°C° 0 mm 2 m/s 762 mmHg 96%
    07:00 +5°C° 0 mm 3 m/s 762 mmHg 92%
    08:00 +8°C° 0 mm 3 m/s 762 mmHg 87%
    09:00 +10°C° 0 mm 3 m/s 762 mmHg 82%
    10:00 +10°C° 0.1 mm 3 m/s 762 mmHg 80%
    11:00 +11°C° 0.1 mm 3 m/s 762 mmHg 77%
    12:00 +11°C° 0.1 mm 3 m/s 763 mmHg 74%
    13:00 +11°C° 0.1 mm 4 m/s 762 mmHg 74%
    14:00 +11°C° 0.1 mm 4 m/s 762 mmHg 74%
    15:00 +11°C° 0.1 mm 4 m/s 762 mmHg 74%
    16:00 +11°C° 0.1 mm 3 m/s 762 mmHg 77%
    17:00 +10°C° 0.1 mm 3 m/s 762 mmHg 81%
    18:00 +9°C° 0.1 mm 3 m/s 762 mmHg 84%
    19:00 +8°C° 0 mm 2 m/s 762 mmHg 86%
    20:00 +6°C° 0 mm 2 m/s 762 mmHg 88%
    21:00 +6°C° 0 mm 1 m/s 763 mmHg 90%
    22:00 +6°C° 0 mm 1 m/s 763 mmHg 89%
    23:00 +6°C° 0 mm 1 m/s 763 mmHg 89%

    4 Avril, Samedi

    Heure Température Précipitation Vent Pression Humidité
    00:00 +5°C° 0 mm 1 m/s 763 mmHg 89%
    01:00 +4°C° 0 mm 2 m/s 762 mmHg 90%
    02:00 +4°C° 0 mm 2 m/s 762 mmHg 91%
    03:00 +4°C° 0 mm 2 m/s 762 mmHg 92%
    04:00 +4°C° 0 mm 2 m/s 762 mmHg 93%
    05:00 +3°C° 0 mm 3 m/s 762 mmHg 93%
    06:00 +3°C° 0 mm 3 m/s 762 mmHg 93%
    07:00 +5°C° 0 mm 5 m/s 762 mmHg 88%
    08:00 +7°C° 0 mm 6 m/s 762 mmHg 83%
    09:00 +9°C° 0 mm 7 m/s 761 mmHg 78%
    10:00 +9°C° 0 mm 7 m/s 761 mmHg 76%
    11:00 +10°C° 0 mm 8 m/s 761 mmHg 75%
    12:00 +10°C° 0 mm 8 m/s 761 mmHg 73%
    13:00 +10°C° 0 mm 8 m/s 760 mmHg 72%
    14:00 +10°C° 0 mm 8 m/s 760 mmHg 72%
    15:00 +10°C° 0 mm 7 m/s 760 mmHg 71%
    16:00 +10°C° 0 mm 7 m/s 759 mmHg 75%
    17:00 +9°C° 0 mm 7 m/s 759 mmHg 78%
    18:00 +9°C° 0 mm 7 m/s 759 mmHg 81%
    19:00 +8°C° 0 mm 6 m/s 759 mmHg 85%
    20:00 +7°C° 0 mm 6 m/s 758 mmHg 89%
    21:00 +5°C° 0 mm 6 m/s 758 mmHg 92%
    22:00 +7°C° 0 mm 6 m/s 758 mmHg 93%
    23:00 +7°C° 0 mm 6 m/s 758 mmHg 93%

    5 Avril, Dimanche

    Heure Température Précipitation Vent Pression Humidité
    00:00 +7°C° 0 mm 6 m/s 758 mmHg 93%
    01:00 +7°C° 0 mm 6 m/s 757 mmHg 94%
    02:00 +7°C° 0 mm 5 m/s 756 mmHg 95%
    03:00 +6°C° 0 mm 5 m/s 756 mmHg 96%
    04:00 +5°C° 0 mm 6 m/s 755 mmHg 96%
    05:00 +5°C° 0 mm 6 m/s 755 mmHg 96%
    06:00 +5°C° 0 mm 6 m/s 755 mmHg 97%
    07:00 +8°C° 0 mm 7 m/s 754 mmHg 92%
    08:00 +9°C° 0 mm 7 m/s 754 mmHg 88%
    09:00 +11°C° 0 mm 8 m/s 753 mmHg 84%
    10:00 +11°C° 0 mm 8 m/s 753 mmHg 83%
    11:00 +12°C° 0 mm 8 m/s 753 mmHg 81%
    12:00 +13°C° 0 mm 8 m/s 752 mmHg 80%
    13:00 +13°C° 0 mm 8 m/s 752 mmHg 79%
    14:00 +13°C° 0 mm 9 m/s 752 mmHg 78%
    15:00 +15°C° 0 mm 9 m/s 751 mmHg 77%
    16:00 +13°C° 0 mm 9 m/s 751 mmHg 79%
    17:00 +12°C° 0 mm 9 m/s 751 mmHg 81%
    18:00 +12°C° 0 mm 8 m/s 750 mmHg 84%
    19:00 +11°C° 0 mm 9 m/s 750 mmHg 82%
    20:00 +11°C° 0 mm 9 m/s 750 mmHg 81%
    21:00 +11°C° 0 mm 9 m/s 750 mmHg 80%
    22:00 +11°C° 0 mm 9 m/s 750 mmHg 85%
    23:00 +11°C° 0 mm 10 m/s 749 mmHg 89%

    6 Avril, Lundi

    Heure Température Précipitation Vent Pression Humidité
    00:00 +11°C° 0 mm 10 m/s 749 mmHg 94%
    01:00 +11°C° 0 mm 10 m/s 749 mmHg 93%
    02:00 +9°C° 0 mm 10 m/s 749 mmHg 93%
    03:00 +9°C° 0 mm 10 m/s 749 mmHg 92%
    04:00 +9°C° 0 mm 10 m/s 749 mmHg 92%
    05:00 +9°C° 0 mm 10 m/s 749 mmHg 92%
    06:00 +8°C° 0 mm 10 m/s 749 mmHg 92%
    07:00 +9°C° 0 mm 10 m/s 749 mmHg 91%
    08:00 +9°C° 0 mm 10 m/s 749 mmHg 90%
    09:00 +9°C° 0 mm 11 m/s 750 mmHg 88%
    10:00 +9°C° 0.1 mm 11 m/s 750 mmHg 86%
    11:00 +9°C° 0.1 mm 10 m/s 751 mmHg 85%
    12:00 +11°C° 0.1 mm 10 m/s 751 mmHg 83%
    13:00 +9°C° 0 mm 10 m/s 752 mmHg 83%
    14:00 +9°C° 0 mm 11 m/s 752 mmHg 83%
    15:00 +9°C° 0 mm 11 m/s 753 mmHg 83%
    16:00 +8°C° 0 mm 10 m/s 753 mmHg 85%
    17:00 +8°C° 0 mm 10 m/s 753 mmHg 86%
    18:00 +7°C° 0 mm 10 m/s 754 mmHg 88%
    19:00 +7°C° 0.3 mm 9 m/s 755 mmHg 90%
    20:00 +7°C° 0.3 mm 8 m/s 755 mmHg 93%
    21:00 +8°C° 0.3 mm 7 m/s 756 mmHg 95%
    22:00 +8°C° 0.3 mm 6 m/s 756 mmHg 96%
    23:00 +8°C° 0.3 mm 4 m/s 757 mmHg 97%
    Voir plus